When you browse on this site, cookies collect data to enhance your experience and personalize the content and advertising you see.
Visit our Privacy Policy to learn more. By continuing to use the site, you agree to this use of cookies and data.
  • In United Kingdom
  • List of Countries
  • For 7 days
  • Water Temperature
  • Satellite Maps
  • Weather Map
  • Weather Widgets
  • user-avatar
    Login

    Hourly Weather Aberlady

    Today, 19 April, Friday

    Time Temperature Precipitation Wind Pressure Humidity
    00:00 +7°C° 0 mm 3 mps 768 mmHg 91%
    01:00 +7°C° 0 mm 3 mps 767 mmHg 91%
    02:00 +7°C° 0 mm 3 mps 767 mmHg 90%
    03:00 +7°C° 0 mm 2 mps 767 mmHg 89%
    04:00 +7°C° 0 mm 2 mps 768 mmHg 88%
    05:00 +7°C° 0 mm 2 mps 768 mmHg 86%
    06:00 +8°C° 0 mm 2 mps 768 mmHg 83%
    07:00 +9°C° 0 mm 2 mps 768 mmHg 77%
    08:00 +12°C° 0 mm 2 mps 768 mmHg 72%
    09:00 +14°C° 0 mm 2 mps 768 mmHg 66%
    10:00 +16°C° 0 mm 2 mps 768 mmHg 62%
    11:00 +17°C° 0 mm 3 mps 768 mmHg 58%
    12:00 +19°C° 0 mm 3 mps 768 mmHg 54%
    13:00 +19°C° 0 mm 4 mps 768 mmHg 54%
    14:00 +19°C° 0 mm 4 mps 768 mmHg 54%
    15:00 +20°C° 0 mm 4 mps 768 mmHg 53%
    16:00 +19°C° 0 mm 4 mps 768 mmHg 58%
    17:00 +18°C° 0 mm 4 mps 768 mmHg 63%
    18:00 +18°C° 0 mm 4 mps 768 mmHg 67%
    19:00 +15°C° 0 mm 4 mps 768 mmHg 72%
    20:00 +14°C° 0 mm 3 mps 768 mmHg 76%
    21:00 +12°C° 0 mm 3 mps 769 mmHg 81%
    22:00 +12°C° 0 mm 3 mps 769 mmHg 82%
    23:00 +11°C° 0 mm 3 mps 769 mmHg 84%

    Tomorrow, 20 April, Saturday

    Time Temperature Precipitation Wind Pressure Humidity
    00:00 +11°C° 0 mm 3 mps 769 mmHg 85%
    01:00 +11°C° 0 mm 3 mps 768 mmHg 85%
    02:00 +10°C° 0 mm 3 mps 768 mmHg 85%
    03:00 +10°C° 0 mm 3 mps 768 mmHg 85%
    04:00 +10°C° 0 mm 3 mps 768 mmHg 85%
    05:00 +10°C° 0 mm 3 mps 768 mmHg 84%
    06:00 +10°C° 0 mm 2 mps 768 mmHg 84%
    07:00 +13°C° 0 mm 2 mps 768 mmHg 78%
    08:00 +15°C° 0 mm 2 mps 768 mmHg 73%
    09:00 +17°C° 0 mm 2 mps 768 mmHg 67%
    10:00 +18°C° 0 mm 2 mps 768 mmHg 64%
    11:00 +19°C° 0 mm 2 mps 768 mmHg 61%
    12:00 +20°C° 0 mm 2 mps 768 mmHg 58%
    13:00 +20°C° 0 mm 2 mps 767 mmHg 58%
    14:00 +21°C° 0 mm 2 mps 767 mmHg 57%
    15:00 +22°C° 0 mm 1 mps 767 mmHg 57%
    16:00 +21°C° 0 mm 1 mps 767 mmHg 62%
    17:00 +20°C° 0 mm 1 mps 766 mmHg 67%
    18:00 +20°C° 0 mm 1 mps 766 mmHg 72%
    19:00 +18°C° 0 mm 1 mps 766 mmHg 76%
    20:00 +16°C° 0 mm 1 mps 766 mmHg 80%
    21:00 +15°C° 0 mm 1 mps 766 mmHg 84%
    22:00 +14°C° 0 mm 1 mps 765 mmHg 83%
    23:00 +14°C° 0 mm 2 mps 764 mmHg 82%

    Day after tomorrow, 21 April, Sunday

    Time Temperature Precipitation Wind Pressure Humidity
    00:00 +12°C° 0 mm 3 mps 764 mmHg 81%
    01:00 +12°C° 0 mm 3 mps 763 mmHg 81%
    02:00 +12°C° 0 mm 3 mps 763 mmHg 81%
    03:00 +11°C° 0 mm 3 mps 762 mmHg 82%
    04:00 +11°C° 0 mm 3 mps 762 mmHg 82%
    05:00 +12°C° 0 mm 3 mps 761 mmHg 82%
    06:00 +12°C° 0 mm 4 mps 761 mmHg 82%
    07:00 +13°C° 0 mm 4 mps 760 mmHg 78%
    08:00 +14°C° 0 mm 4 mps 760 mmHg 73%
    09:00 +16°C° 0 mm 5 mps 759 mmHg 69%
    10:00 +17°C° 0 mm 5 mps 759 mmHg 65%
    11:00 +17°C° 0 mm 6 mps 758 mmHg 61%
    12:00 +19°C° 0 mm 6 mps 758 mmHg 57%
    13:00 +19°C° 0 mm 6 mps 757 mmHg 57%
    14:00 +19°C° 0 mm 6 mps 756 mmHg 56%
    15:00 +20°C° 0 mm 6 mps 756 mmHg 56%
    16:00 +19°C° 0 mm 6 mps 755 mmHg 59%
    17:00 +17°C° 0 mm 5 mps 755 mmHg 63%
    18:00 +16°C° 0 mm 5 mps 755 mmHg 66%
    19:00 +14°C° 0 mm 5 mps 755 mmHg 70%
    20:00 +13°C° 0 mm 5 mps 755 mmHg 74%
    21:00 +12°C° 0 mm 4 mps 754 mmHg 78%
    22:00 +11°C° 0 mm 4 mps 754 mmHg 79%
    23:00 +11°C° 0 mm 4 mps 754 mmHg 80%

    22 April, Monday

    Time Temperature Precipitation Wind Pressure Humidity
    00:00 +11°C° 0 mm 4 mps 753 mmHg 82%
    01:00 +10°C° 0 mm 4 mps 753 mmHg 84%
    02:00 +10°C° 0 mm 3 mps 752 mmHg 87%
    03:00 +10°C° 0 mm 3 mps 752 mmHg 89%
    04:00 +10°C° 0 mm 3 mps 752 mmHg 89%
    05:00 +10°C° 0 mm 3 mps 752 mmHg 90%
    06:00 +10°C° 0 mm 3 mps 751 mmHg 90%
    07:00 +12°C° 0 mm 4 mps 751 mmHg 82%
    08:00 +14°C° 0 mm 5 mps 751 mmHg 74%
    09:00 +16°C° 0 mm 6 mps 751 mmHg 66%
    10:00 +17°C° 0 mm 6 mps 751 mmHg 63%
    11:00 +17°C° 0 mm 6 mps 750 mmHg 60%
    12:00 +19°C° 0 mm 6 mps 750 mmHg 57%
    13:00 +19°C° 0 mm 6 mps 750 mmHg 58%
    14:00 +18°C° 0 mm 7 mps 750 mmHg 59%
    15:00 +18°C° 0 mm 7 mps 749 mmHg 60%
    16:00 +17°C° 0 mm 7 mps 749 mmHg 63%
    17:00 +15°C° 0 mm 7 mps 749 mmHg 66%
    18:00 +14°C° 0 mm 7 mps 749 mmHg 69%
    19:00 +11°C° 0 mm 6 mps 749 mmHg 75%
    20:00 +9°C° 0 mm 6 mps 749 mmHg 80%
    21:00 +7°C° 0 mm 5 mps 750 mmHg 86%
    22:00 +7°C° 0 mm 5 mps 749 mmHg 88%
    23:00 +7°C° 0 mm 4 mps 749 mmHg 91%

    23 April, Tuesday

    Time Temperature Precipitation Wind Pressure Humidity
    00:00 +6°C° 0 mm 4 mps 749 mmHg 94%
    01:00 +6°C° 0 mm 4 mps 749 mmHg 95%
    02:00 +6°C° 0 mm 4 mps 749 mmHg 95%
    03:00 +6°C° 0 mm 4 mps 748 mmHg 96%
    04:00 +6°C° 0 mm 4 mps 748 mmHg 94%
    05:00 +7°C° 0 mm 5 mps 748 mmHg 93%
    06:00 +7°C° 0 mm 5 mps 748 mmHg 91%
    07:00 +8°C° 0 mm 6 mps 748 mmHg 85%
    08:00 +10°C° 0 mm 6 mps 748 mmHg 78%
    09:00 +11°C° 0 mm 7 mps 748 mmHg 72%
    10:00 +12°C° 0 mm 7 mps 747 mmHg 70%
    11:00 +12°C° 0 mm 7 mps 747 mmHg 68%
    12:00 +13°C° 0 mm 8 mps 747 mmHg 67%
    13:00 +13°C° 0 mm 8 mps 746 mmHg 68%
    14:00 +14°C° 0 mm 7 mps 746 mmHg 69%
    15:00 +12°C° 0 mm 7 mps 746 mmHg 70%
    16:00 +11°C° 0 mm 7 mps 745 mmHg 75%
    17:00 +10°C° 0 mm 7 mps 745 mmHg 79%
    18:00 +9°C° 0 mm 6 mps 745 mmHg 84%
    19:00 +8°C° 0 mm 6 mps 745 mmHg 87%
    20:00 +7°C° 0 mm 5 mps 745 mmHg 91%
    21:00 +6°C° 0 mm 4 mps 745 mmHg 95%
    22:00 +7°C° 0 mm 4 mps 745 mmHg 94%
    23:00 +7°C° 0 mm 4 mps 745 mmHg 93%

    24 April, Wednesday

    Time Temperature Precipitation Wind Pressure Humidity
    00:00 +7°C° 0 mm 4 mps 745 mmHg 92%
    01:00 +7°C° 0 mm 4 mps 744 mmHg 92%
    02:00 +7°C° 0 mm 4 mps 744 mmHg 93%
    03:00 +7°C° 0 mm 4 mps 744 mmHg 93%
    04:00 +7°C° 0 mm 4 mps 744 mmHg 93%
    05:00 +7°C° 0 mm 4 mps 744 mmHg 93%
    06:00 +7°C° 0 mm 4 mps 744 mmHg 93%
    07:00 +8°C° 0 mm 5 mps 744 mmHg 90%
    08:00 +9°C° 0 mm 5 mps 744 mmHg 87%
    09:00 +10°C° 0 mm 6 mps 744 mmHg 84%
    10:00 +11°C° 0 mm 6 mps 743 mmHg 81%
    11:00 +12°C° 0 mm 7 mps 743 mmHg 78%
    12:00 +14°C° 0 mm 7 mps 743 mmHg 75%
    13:00 +12°C° 0.1 mm 7 mps 742 mmHg 78%
    14:00 +11°C° 0.1 mm 7 mps 741 mmHg 82%
    15:00 +11°C° 0.1 mm 7 mps 741 mmHg 86%
    16:00 +11°C° 0.4 mm 7 mps 741 mmHg 88%
    17:00 +10°C° 0.4 mm 7 mps 741 mmHg 90%
    18:00 +10°C° 0.4 mm 6 mps 741 mmHg 92%
    19:00 +10°C° 0.1 mm 5 mps 741 mmHg 93%
    20:00 +10°C° 0.1 mm 4 mps 741 mmHg 93%
    21:00 +10°C° 0.1 mm 3 mps 742 mmHg 93%
    22:00 +9°C° 0 mm 3 mps 742 mmHg 92%
    23:00 +8°C° 0 mm 4 mps 742 mmHg 91%
    Show more